"Pseudo-MPEC" for P22orSD

Created 2026 Jul 22 15:35:11 UT using Find_Orb

Click here for an explanation of pseudo-MPECs

 
 Astrometry: 
     P22orSD 0C2026 07 15.38756219 46 08.171-25 02 30.38   ~7KLo 21.91GVNEOCPF51
     P22orSD 0C2026 07 15.39147919 46 08.439-25 02 31.53   ~7KLo 21.85GVNEOCPF51
     P22orSD*0C2026 07 19.39579119 51 35.708-25 25 23.47   ~7JC5 21.79wXNEOCPF52
     P22orSD 0C2026 07 19.40113119 51 36.057-25 25 25.13   ~7JC5 21.57wXNEOCPF52
     P22orSD 0C2026 07 19.40645419 51 36.434-25 25 27.12   ~7JC5 21.94wXNEOCPF52
     P22orSD 0C2026 07 19.50875219 51 43.352-25 25 58.77   ~7JGo 21.76GVNEOCPF52
     P22orSD 0C2026 07 19.50938519 51 43.402-25 25 58.91   ~7JGo 21.55GVNEOCPF52
     P22orSD 1C2026 07 20.42094519 53 00.423-25 30 47.85   ~7KGo 21.35GVNEOCPT12
     P22orSD 1C2026 07 20.42457419 53 00.668-25 30 49.00   ~7KGo 21.32GVNEOCPT12
     P22orSD 1C2026 07 20.42820419 53 00.912-25 30 50.14   ~7KGo 21.41GVNEOCPT12
     P22orSD 1C2026 07 22.40706619 55 47.239-25 40 38.70   ~7MDZ 21.41GVNEOCPT12
     P22orSD 1C2026 07 22.40861319 55 47.342-25 40 39.15   ~7MDZ 21.30GVNEOCPT12
     P22orSD 1C2026 07 22.41015719 55 47.442-25 40 39.18   ~7MDZ 21.61GVNEOCPT12

Station data:
(F51) Pan-STARRS 1, Haleakala  (N20.707234 W156.255910)  US/Hawaii.
   Observers J. Herman, T. Lowe, P. Minguez, A. Schultz, I. Smith. Measurers
   K. Chambers, T. de Boer, J. Fairlamb, H. Gao, M. Huber, C.-C. Lin, E.
   Magnier, Y. Ramanjooloo, R. Wainscoat, R. Weryk. 1.8-m Ritchey-Chrétien +
   CCD.
(F52) Pan-STARRS 2, Haleakala  (N20.707382 W156.255910)  US/Hawaii.
   Observers J. Herman, T. Lowe, P. Minguez, A. Schultz, I. Smith. Measurers
   K. Chambers, T. de Boer, J. Fairlamb, H. Gao, M. Huber, C.-C. Lin, E.
   Magnier, Y. Ramanjooloo, R. Wainscoat, R. Weryk. 1.8-m Ritchey-Chrétien +
   CCD.
(T12) Mauna Kea-UH/Tholen NEO Follow-Up (2.24-m)  (N19.822991 W155.469434)
   US/Hawaii.  Observer R. Weryk. 2.24-m f/10.1 University of Hawaii
   reflector.

Orbital elements:  P22orSD
   Perihelion 2026 Jul 26.509224 +/- 0.0266 TT = 12:13:16.9 (JD 2461248.009224)
Epoch 2026 Jul 22.0 TT = JDT 2461243.5   Earth MOID: 0.2436   Ma: 0.0097
M 358.576211356 +/- 0.009           (J2000 ecliptic)             AutoNEOCP
n   0.315750231 +/- 0.00192         Peri.  209.953578 +/- 0.024
a   2.135864009 +/- 0.00864         Node    92.080812 +/- 0.010
e   0.41070890 +/- 0.00192          Incl.    2.076969 +/- 0.007
P   3.12148                H 23.97  G  0.15   U  8.5
q 1.258645644 +/- 0.000983    Q 3.013082373 +/- 0.0163
From 13 observations 2026 July 15-22; mean residual 0".12
Residuals in arcseconds: 
260715 F51  .04-  .18-    260719 F52  .02-  .01+    260722 T12  .05+  .14-    
260715 F51  .07+  .20+    260719 F52  .07+  .05+    260722 T12  .01+  .13-    
260719 F52  .14-  .01-    260720 T12  .05+  .02-    260722 T12  .08-  .30+    
260719 F52  .31-  .16+    260720 T12  .04+  .03-    
260719 F52  .07-  .01-    260720 T12  .02+  .03-    

Ephemerides (geocentric):
Date (UTC) HH   RA             Dec           delta  r     elong  mag " sig PA
---- --------  ------------   ------------  ------ ------ -----  --- --------
2026 07 22 16  19 56 08.837   -25 41 26.40  .24433 1.2592 174.0 21.8 .152 177
2026 07 22 17  19 56 12.364   -25 41 38.07  .24433 1.2592 174.0 21.8 .154 177
2026 07 22 18  19 56 15.892   -25 41 49.72  .24433 1.2592 174.0 21.8 .157 177
2026 07 22 19  19 56 19.421   -25 42 01.35  .24433 1.2592 174.0 21.8 .159 178
2026 07 22 20  19 56 22.951   -25 42 12.95  .24433 1.2592 174.0 21.8 .162 178
2026 07 22 21  19 56 26.482   -25 42 24.52  .24433 1.2592 173.9 21.8 .164 178
2026 07 22 22  19 56 30.014   -25 42 36.08  .24433 1.2591 173.9 21.8 .167 178
2026 07 22 23  19 56 33.547   -25 42 47.60  .24433 1.2591 173.9 21.8 .169 178
2026 07 23 00  19 56 37.081   -25 42 59.10  .24433 1.2591 173.9 21.8 .172 178
2026 07 23 01  19 56 40.616   -25 43 10.58  .24433 1.2591 173.9 21.8 .175 178
2026 07 23 02  19 56 44.152   -25 43 22.03  .24433 1.2591 173.8 21.8 .178 178
2026 07 23 03  19 56 47.689   -25 43 33.46  .24433 1.2591 173.8 21.8 .180 178
2026 07 23 04  19 56 51.227   -25 43 44.86  .24433 1.2591 173.8 21.8 .183 179
2026 07 23 05  19 56 54.767   -25 43 56.24  .24433 1.2591 173.8 21.8 .186 179
2026 07 23 06  19 56 58.307   -25 44 07.59  .24433 1.2591 173.8 21.8 .189 179
2026 07 23 07  19 57 01.848   -25 44 18.91  .24434 1.2590 173.7 21.8 .192 179
2026 07 23 08  19 57 05.390   -25 44 30.21  .24434 1.2590 173.7 21.8 .195 179
2026 07 23 09  19 57 08.933   -25 44 41.49  .24434 1.2590 173.7 21.8 .198 179
2026 07 23 10  19 57 12.478   -25 44 52.73  .24434 1.2590 173.7 21.8 .201 179
2026 07 23 11  19 57 16.023   -25 45 03.96  .24434 1.2590 173.6 21.8 .204 179
2026 07 23 12  19 57 19.569   -25 45 15.16  .24435 1.2590 173.6 21.8 .207 179
2026 07 23 13  19 57 23.116   -25 45 26.33  .24435 1.2590 173.6 21.8 .210 179
2026 07 23 14  19 57 26.665   -25 45 37.47  .24435 1.2590 173.6 21.8 .213 179
2026 07 23 15  19 57 30.214   -25 45 48.59  .24435 1.2590 173.6 21.8 .216   0
2026 07 23 16  19 57 33.764   -25 45 59.69  .24436 1.2590 173.5 21.8 .220   0
2026 07 23 17  19 57 37.316   -25 46 10.76  .24436 1.2589 173.5 21.8 .223   0
2026 07 23 18  19 57 40.868   -25 46 21.80  .24436 1.2589 173.5 21.8 .226   0
2026 07 23 19  19 57 44.422   -25 46 32.82  .24437 1.2589 173.5 21.8 .230   0
2026 07 23 20  19 57 47.976   -25 46 43.81  .24437 1.2589 173.5 21.8 .233   0
2026 07 23 21  19 57 51.531   -25 46 54.77  .24438 1.2589 173.4 21.8 .236   0
2026 07 23 22  19 57 55.088   -25 47 05.71  .24438 1.2589 173.4 21.8 .240   0
2026 07 23 23  19 57 58.645   -25 47 16.62  .24438 1.2589 173.4 21.9 .243   0
2026 07 24 00  19 58 02.204   -25 47 27.51  .24439 1.2589 173.4 21.9 .247   0
2026 07 24 01  19 58 05.763   -25 47 38.37  .24439 1.2589 173.3 21.9 .250   0
2026 07 24 02  19 58 09.324   -25 47 49.20  .24440 1.2589 173.3 21.9 .254   0
2026 07 24 03  19 58 12.886   -25 48 00.01  .24440 1.2589 173.3 21.9 .257   0
2026 07 24 04  19 58 16.448   -25 48 10.79  .24441 1.2589 173.3 21.9 .261   1
2026 07 24 05  19 58 20.012   -25 48 21.55  .24441 1.2588 173.3 21.9 .265   1
2026 07 24 06  19 58 23.576   -25 48 32.27  .24442 1.2588 173.2 21.9 .269   1
2026 07 24 07  19 58 27.142   -25 48 42.97  .24443 1.2588 173.2 21.9 .272   1
2026 07 24 08  19 58 30.709   -25 48 53.65  .24443 1.2588 173.2 21.9 .276   1
2026 07 24 09  19 58 34.276   -25 49 04.30  .24444 1.2588 173.2 21.9 .280   1
2026 07 24 10  19 58 37.845   -25 49 14.92  .24444 1.2588 173.1 21.9 .284   1
2026 07 24 11  19 58 41.415   -25 49 25.51  .24445 1.2588 173.1 21.9 .288   1
2026 07 24 12  19 58 44.986   -25 49 36.08  .24446 1.2588 173.1 21.9 .292   1
2026 07 24 13  19 58 48.557   -25 49 46.62  .24446 1.2588 173.1 21.9 .296   1
2026 07 24 14  19 58 52.130   -25 49 57.13  .24447 1.2588 173.1 21.9 .300   1
2026 07 24 15  19 58 55.704   -25 50 07.62  .24448 1.2588 173.0 21.9 .304   1